JONKER EPPT-EPPT

Flight info

Callsign JONKER
Flight time 1h 10m
Altitude 10000
Route EPPT TRAFFIC PATTERNS RWY 21/LOCAL SOARING
Aircraft GLID/L-GYV/F

Departure

Time 2026-05-05 13:38
Airport Piotrków Trybunalski-Bujny Airfield (EPPT)

Arrival

Time 2026-05-05 14:48
Airport Piotrków Trybunalski-Bujny Airfield (EPPT)
Time Latitude Longitude Altitude Speed Heading
2026-05-05 13:33 51.38597 19.69280 671 ft 0 kts 211°
2026-05-05 13:37 51.38594 19.69277 672 ft 16 kts 211°
2026-05-05 13:37 51.38326 19.68981 1759 ft 44 kts 210°
2026-05-05 13:37 51.38066 19.68688 2273 ft 35 kts 206°
2026-05-05 13:37 51.37839 19.68499 2284 ft 40 kts 173°
2026-05-05 13:38 51.37936 19.69010 2237 ft 72 kts 47°
2026-05-05 13:38 51.38327 19.68837 2242 ft 58 kts 261°
2026-05-05 13:38 51.38088 19.68627 2246 ft 44 kts 182°
2026-05-05 13:38 51.37853 19.68427 2283 ft 61 kts 271°
2026-05-05 13:39 51.38164 19.68606 2278 ft 58 kts 127°
2026-05-05 13:39 51.38006 19.68325 2285 ft 75 kts 301°
2026-05-05 13:39 51.38233 19.68594 2307 ft 49 kts 168°
2026-05-05 13:39 51.38253 19.68152 2324 ft 76 kts 335°
2026-05-05 13:40 51.38728 19.68436 2319 ft 71 kts 35°
2026-05-05 13:40 51.39161 19.68827 2371 ft 71 kts 36°
2026-05-05 13:40 51.39426 19.68641 2392 ft 35 kts 196°
2026-05-05 13:40 51.39224 19.68951 2361 ft 68 kts 94°
2026-05-05 13:41 51.39569 19.69003 2386 ft 52 kts 246°
2026-05-05 13:41 51.39469 19.69279 2441 ft 79 kts 50°
2026-05-05 13:41 51.39707 19.69074 2439 ft 42 kts 201°
2026-05-05 13:41 51.39808 19.69506 2458 ft 77 kts 336°
2026-05-05 13:42 51.39788 19.69421 2429 ft 62 kts 106°
2026-05-05 13:42 51.40120 19.69779 2387 ft 71 kts 300°
2026-05-05 13:42 51.40005 19.69446 2400 ft 61 kts 139°
2026-05-05 13:42 51.40233 19.69612 2488 ft 47 kts 225°
2026-05-05 13:43 51.40281 19.70016 2491 ft 80 kts 15°
2026-05-05 13:43 51.40492 19.69618 2490 ft 51 kts 245°
2026-05-05 13:43 51.40709 19.69191 2475 ft 84 kts 18°
2026-05-05 13:43 51.40691 19.69620 2416 ft 54 kts 217°
2026-05-05 13:44 51.40874 19.69015 2446 ft 70 kts 298°
2026-05-05 13:44 51.41198 19.68486 2497 ft 64 kts 299°
2026-05-05 13:44 51.41487 19.67990 2541 ft 57 kts 288°
2026-05-05 13:44 51.41359 19.67714 2515 ft 36 kts 196°
2026-05-05 13:45 51.41208 19.67469 2545 ft 60 kts 287°
2026-05-05 13:45 51.41480 19.67753 2516 ft 57 kts 148°
2026-05-05 13:45 51.41158 19.67866 2513 ft 45 kts 180°
2026-05-05 13:45 51.40862 19.68027 2540 ft 58 kts 133°
2026-05-05 13:46 51.41146 19.68234 2529 ft 62 kts 272°
2026-05-05 13:46 51.41019 19.68081 2548 ft 69 kts 102°
2026-05-05 13:46 51.41359 19.68236 2572 ft 54 kts 258°
2026-05-05 13:46 51.41235 19.68457 2573 ft 73 kts 68°
2026-05-05 13:47 51.41619 19.68415 2620 ft 50 kts 238°
2026-05-05 13:47 51.41503 19.68754 2635 ft 67 kts 98°
2026-05-05 13:47 51.41337 19.68694 2647 ft 61 kts 264°
2026-05-05 13:47 51.41718 19.68566 2651 ft 80 kts 66°
2026-05-05 13:48 51.41629 19.68833 2650 ft 73 kts 294°
2026-05-05 13:48 51.41968 19.69107 2669 ft 71 kts 130°
2026-05-05 13:48 51.42051 19.69019 2756 ft 82 kts 67°
2026-05-05 13:48 51.42016 19.68989 2803 ft 84 kts 341°
2026-05-05 13:49 51.42047 19.69089 2868 ft 70 kts 280°
2026-05-05 13:49 51.42202 19.69337 2927 ft 53 kts 200°
2026-05-05 13:49 51.42422 19.69104 2984 ft 79 kts 83°
2026-05-05 13:49 51.42372 19.69002 3072 ft 79 kts 333°
2026-05-05 13:50 51.42490 19.69340 3124 ft 57 kts 221°
2026-05-05 13:50 51.42775 19.69354 3173 ft 69 kts 129°
2026-05-05 13:50 51.42806 19.69030 3183 ft 90 kts 17°
2026-05-05 13:50 51.42728 19.69105 3193 ft 65 kts 269°
2026-05-05 13:51 51.43012 19.69326 3198 ft 58 kts 162°
2026-05-05 13:51 51.43227 19.69049 3231 ft 84 kts 41°
2026-05-05 13:51 51.43220 19.69110 3260 ft 84 kts 316°
2026-05-05 13:51 51.43309 19.69265 3267 ft 68 kts 262°
2026-05-05 13:52 51.43654 19.69485 3274 ft 66 kts 125°
2026-05-05 13:52 51.43733 19.69378 3342 ft 83 kts 37°
2026-05-05 13:52 51.43663 19.69659 3445 ft 53 kts 246°
2026-05-05 13:52 51.43974 19.69683 3504 ft 63 kts 118°
2026-05-05 13:53 51.43996 19.69406 3507 ft 79 kts 327°
2026-05-05 13:53 51.44091 19.69619 3514 ft 65 kts 255°
2026-05-05 13:53 51.44217 19.69668 3684 ft 60 kts 237°
2026-05-05 13:53 51.44307 19.69583 3592 ft 61 kts 267°
2026-05-05 13:54 51.44453 19.68952 3610 ft 44 kts 207°
2026-05-05 13:54 51.44410 19.69417 3644 ft 73 kts 56°
2026-05-05 13:54 51.44587 19.69266 3772 ft 45 kts 153°
2026-05-05 13:54 51.44792 19.69782 3777 ft 73 kts 356°
2026-05-05 13:55 51.45032 19.69441 4002 ft 44 kts 182°
2026-05-05 13:55 51.45179 19.69819 4164 ft 69 kts 330°
2026-05-05 13:55 51.45161 19.69510 4254 ft 56 kts 136°
2026-05-05 13:55 51.45432 19.70042 4213 ft 77 kts
2026-05-05 13:56 51.45579 19.69771 4330 ft 48 kts 158°
2026-05-05 13:56 51.45808 19.70123 4463 ft 74 kts 315°
2026-05-05 13:56 51.45720 19.70006 4746 ft 60 kts 101°
2026-05-05 13:56 51.46044 19.70038 4801 ft 65 kts 274°
2026-05-05 13:57 51.46036 19.69567 5011 ft 47 kts 184°
2026-05-05 13:57 51.46210 19.69826 5212 ft 66 kts 279°
2026-05-05 13:57 51.46190 19.70037 5458 ft 86 kts 23°
2026-05-05 13:57 51.46336 19.69750 5516 ft 46 kts 184°
2026-05-05 13:58 51.46391 19.70229 5614 ft 83 kts 358°
2026-05-05 13:58 51.46722 19.69739 5556 ft 57 kts 263°
2026-05-05 13:58 51.46582 19.69805 5693 ft 80 kts 72°
2026-05-05 13:58 51.47082 19.69977 5649 ft 74 kts 322°
2026-05-05 13:59 51.46862 19.69657 5508 ft 54 kts 162°
2026-05-05 13:59 51.46542 19.69830 5495 ft 47 kts 182°
2026-05-05 14:00 51.46877 19.69650 5484 ft 79 kts 96°
2026-05-05 14:00 51.46712 19.69975 5425 ft 55 kts 186°
2026-05-05 14:00 51.46481 19.69623 5486 ft 82 kts 322°
2026-05-05 14:00 51.46595 19.69943 5546 ft 37 kts 201°
2026-05-05 14:01 51.46382 19.70164 5629 ft 73 kts 86°
2026-05-05 14:01 51.46826 19.70391 5565 ft 71 kts 315°
2026-05-05 14:01 51.46938 19.69851 5518 ft 43 kts 229°
2026-05-05 14:01 51.46754 19.69532 5482 ft 40 kts 218°
2026-05-05 14:02 51.46658 19.69957 5620 ft 81 kts 54°
2026-05-05 14:02 51.47192 19.69937 5477 ft 78 kts 309°
2026-05-05 14:02 51.47264 19.69344 5384 ft 55 kts 220°
2026-05-05 14:02 51.46918 19.69404 5347 ft 59 kts 150°
2026-05-05 14:03 51.46628 19.69800 5314 ft 46 kts 172°
2026-05-05 14:03 51.46450 19.70241 5470 ft 70 kts 85°
2026-05-05 14:03 51.46991 19.70568 5299 ft 81 kts 336°
2026-05-05 14:03 51.47165 19.70132 5221 ft 52 kts 202°
2026-05-05 14:04 51.46784 19.70079 5130 ft 53 kts 195°
2026-05-05 14:04 51.46421 19.69954 5142 ft 52 kts 215°
2026-05-05 14:04 51.46720 19.69900 5230 ft 72 kts 94°
2026-05-05 14:04 51.46460 19.69978 5163 ft 49 kts 210°
2026-05-05 14:05 51.46690 19.69893 5171 ft 78 kts 115°
2026-05-05 14:05 51.46394 19.69891 5172 ft 60 kts 257°
2026-05-05 14:05 51.46651 19.70045 5169 ft 51 kts 181°
2026-05-05 14:05 51.46339 19.69871 5259 ft 40 kts 199°
2026-05-05 14:06 51.46075 19.69791 5475 ft 31 kts 196°
2026-05-05 14:06 51.45916 19.69592 5566 ft 61 kts 283°
2026-05-05 14:06 51.46151 19.69927 5652 ft 62 kts 171°
2026-05-05 14:06 51.46331 19.69920 5838 ft 77 kts 110°
2026-05-05 14:07 51.46350 19.69810 6006 ft 78 kts 22°
2026-05-05 14:07 51.46345 19.69942 5958 ft 81 kts 303°
2026-05-05 14:07 51.46505 19.70320 5877 ft 61 kts 202°
2026-05-05 14:07 51.46305 19.69964 5935 ft 58 kts 268°
2026-05-05 14:08 51.46737 19.69919 5864 ft 85 kts 84°
2026-05-05 14:08 51.46505 19.70492 5824 ft 51 kts 170°
2026-05-05 14:08 51.46174 19.70496 5721 ft 53 kts 190°
2026-05-05 14:08 51.45793 19.70444 5634 ft 57 kts 188°
2026-05-05 14:09 51.45508 19.70430 5967 ft 34 kts 188°
2026-05-05 14:09 51.45259 19.70404 6100 ft 35 kts 192°
2026-05-05 14:09 51.45004 19.70350 6206 ft 37 kts 192°
2026-05-05 14:09 51.45135 19.70017 6234 ft 82 kts
2026-05-05 14:10 51.45177 19.70361 6219 ft 63 kts 248°
2026-05-05 14:10 51.45583 19.70414 6246 ft 86 kts 94°
2026-05-05 14:10 51.45381 19.70504 6349 ft 67 kts 271°
2026-05-05 14:10 51.45849 19.70544 6420 ft 84 kts 86°
2026-05-05 14:11 51.45553 19.70797 6527 ft 42 kts 189°
2026-05-05 14:11 51.45377 19.71105 6624 ft 82 kts 69°
2026-05-05 14:11 51.45785 19.71049 6650 ft 54 kts 252°
2026-05-05 14:11 51.45585 19.71174 6711 ft 68 kts 97°
2026-05-05 14:12 51.45715 19.71945 6618 ft 63 kts 128°
2026-05-05 14:12 51.45714 19.72722 6515 ft 82 kts 88°
2026-05-05 14:12 51.45874 19.73645 6451 ft 86 kts 85°
2026-05-05 14:12 51.46033 19.74567 6418 ft 85 kts 86°
2026-05-05 14:13 51.46187 19.75523 6398 ft 87 kts 89°
2026-05-05 14:13 51.46304 19.76351 6549 ft 70 kts 92°
2026-05-05 14:13 51.46410 19.77133 6571 ft 73 kts 93°
2026-05-05 14:13 51.46531 19.77952 6603 ft 77 kts 90°
2026-05-05 14:14 51.46627 19.78774 6646 ft 68 kts 115°
2026-05-05 14:14 51.46576 19.79512 6653 ft 67 kts 112°
2026-05-05 14:14 51.46537 19.80269 6656 ft 69 kts 111°
2026-05-05 14:14 51.46509 19.80790 6678 ft 71 kts 111°
2026-05-05 14:15 51.46486 19.81825 6736 ft 69 kts 107°
2026-05-05 14:15 51.46476 19.82586 6766 ft 70 kts 110°
2026-05-05 14:15 51.46450 19.83366 6813 ft 70 kts 112°
2026-05-05 14:15 51.46387 19.84124 6864 ft 69 kts 118°
2026-05-05 14:16 51.46271 19.84885 6835 ft 71 kts 122°
2026-05-05 14:16 51.46129 19.85660 6851 ft 74 kts 120°
2026-05-05 14:16 51.46045 19.86219 6888 ft 76 kts 119°
2026-05-05 14:16 51.45902 19.87031 6917 ft 76 kts 123°
2026-05-05 14:17 51.45735 19.87814 6914 ft 73 kts 125°
2026-05-05 14:17 51.45579 19.88588 6908 ft 74 kts 124°
2026-05-05 14:17 51.45462 19.89410 6869 ft 79 kts 113°
2026-05-05 14:17 51.45370 19.90306 6810 ft 81 kts 114°
2026-05-05 14:18 51.45256 19.91149 6855 ft 72 kts 121°
2026-05-05 14:18 51.45014 19.91058 6799 ft 49 kts 230°
2026-05-05 14:18 51.44731 19.90869 6763 ft 57 kts 154°
2026-05-05 14:18 51.44514 19.91438 6722 ft 84 kts 72°
2026-05-05 14:19 51.44740 19.91320 6747 ft 52 kts 181°
2026-05-05 14:19 51.44827 19.91923 6778 ft 85 kts 14°
2026-05-05 14:19 51.45242 19.91639 6758 ft 53 kts 263°
2026-05-05 14:19 51.45058 19.91288 6720 ft 45 kts 204°
2026-05-05 14:20 51.44755 19.91073 6665 ft 50 kts 206°
2026-05-05 14:20 51.44420 19.90843 6596 ft 56 kts 205°
2026-05-05 14:20 51.44062 19.90605 6625 ft 56 kts 202°
2026-05-05 14:20 51.43691 19.90429 6576 ft 55 kts 198°
2026-05-05 14:21 51.43307 19.90288 6519 ft 57 kts 196°
2026-05-05 14:21 51.42995 19.90181 6648 ft 36 kts 199°
2026-05-05 14:21 51.42719 19.90075 6585 ft 47 kts 200°
2026-05-05 14:21 51.42411 19.89938 6586 ft 46 kts 199°
2026-05-05 14:22 51.42110 19.89812 6566 ft 43 kts 199°
2026-05-05 14:22 51.41818 19.89696 6542 ft 42 kts 199°
2026-05-05 14:22 51.41538 19.89573 6511 ft 43 kts 201°
2026-05-05 14:22 51.41241 19.89425 6442 ft 49 kts 201°
2026-05-05 14:23 51.40895 19.89241 6351 ft 58 kts 201°
2026-05-05 14:23 51.40495 19.89015 6290 ft 61 kts 201°
2026-05-05 14:23 51.40106 19.88787 6260 ft 59 kts 201°
2026-05-05 14:23 51.39717 19.88562 6211 ft 60 kts 200°
2026-05-05 14:24 51.39324 19.88361 6180 ft 58 kts 195°
2026-05-05 14:24 51.39095 19.88211 6122 ft 44 kts 265°
2026-05-05 14:24 51.39386 19.87771 6119 ft 65 kts
2026-05-05 14:24 51.39865 19.88303 6043 ft 81 kts 54°
2026-05-05 14:25 51.40208 19.88297 5484 ft 97 kts 250°
2026-05-05 14:25 51.40244 19.87672 5768 ft 59 kts 259°
2026-05-05 14:25 51.40293 19.86993 5716 ft 61 kts 263°
2026-05-05 14:25 51.40345 19.86155 5476 ft 90 kts 256°
2026-05-05 14:26 51.40543 19.85675 5813 ft 75 kts 324°
2026-05-05 14:26 51.40646 19.85968 5514 ft 85 kts 264°
2026-05-05 14:26 51.40467 19.85750 5899 ft 82 kts 81°
2026-05-05 14:26 51.40650 19.85670 5957 ft 54 kts 180°
2026-05-05 14:27 51.40820 19.86096 6072 ft 75 kts 309°
2026-05-05 14:27 51.40875 19.85474 5993 ft 52 kts 243°
2026-05-05 14:27 51.40765 19.84919 5941 ft 58 kts 251°
2026-05-05 14:27 51.41196 19.84700 5892 ft 80 kts 322°
2026-05-05 14:28 51.41222 19.84138 5820 ft 50 kts 228°
2026-05-05 14:28 51.41064 19.83765 5998 ft 22 kts 225°
2026-05-05 14:28 51.40945 19.83457 6069 ft 16 kts 249°
2026-05-05 14:28 51.40666 19.83611 5613 ft 50 kts 188°
2026-05-05 14:29 51.40435 19.83414 5874 ft 56 kts 258°
2026-05-05 14:29 51.40855 19.83344 6001 ft 87 kts 69°
2026-05-05 14:29 51.40707 19.83529 6175 ft 54 kts 261°
2026-05-05 14:29 51.41124 19.83510 6155 ft 86 kts 64°
2026-05-05 14:30 51.41013 19.84019 6207 ft 43 kts 207°
2026-05-05 14:30 51.41201 19.83700 6122 ft 91 kts 28°
2026-05-05 14:30 51.41220 19.84359 6068 ft 54 kts 183°
2026-05-05 14:30 51.41121 19.83831 6013 ft 66 kts 262°
2026-05-05 14:31 51.41209 19.83168 5997 ft 60 kts 265°
2026-05-05 14:31 51.41213 19.82515 5912 ft 57 kts 249°
2026-05-05 14:31 51.41166 19.81886 5865 ft 56 kts 249°
2026-05-05 14:31 51.41117 19.81255 5760 ft 64 kts 250°
2026-05-05 14:32 51.40976 19.80577 5702 ft 64 kts 239°
2026-05-05 14:32 51.40813 19.79913 5659 ft 65 kts 238°
2026-05-05 14:32 51.40640 19.79250 5650 ft 66 kts 238°
2026-05-05 14:32 51.40465 19.78628 5860 ft 57 kts 239°
2026-05-05 14:33 51.40343 19.78048 6043 ft 51 kts 240°
2026-05-05 14:33 51.40249 19.77538 6196 ft 46 kts 237°
2026-05-05 14:33 51.40148 19.77050 6381 ft 45 kts 239°
2026-05-05 14:33 51.40064 19.76566 6576 ft 44 kts 242°
2026-05-05 14:34 51.40009 19.76076 6566 ft 49 kts 253°
2026-05-05 14:34 51.40067 19.75551 6492 ft 40 kts 192°
2026-05-05 14:34 51.40045 19.76259 6451 ft 79 kts 84°
2026-05-05 14:34 51.40221 19.77076 6597 ft 75 kts 82°
2026-05-05 14:35 51.40414 19.77817 6763 ft 71 kts 81°
2026-05-05 14:35 51.40524 19.78562 6867 ft 67 kts 98°
2026-05-05 14:35 51.40616 19.79292 6965 ft 68 kts 79°
2026-05-05 14:35 51.40750 19.80027 6889 ft 70 kts 107°
2026-05-05 14:36 51.40978 19.80562 6801 ft 77 kts 321°
2026-05-05 14:36 51.40877 19.80111 6701 ft 53 kts 230°
2026-05-05 14:36 51.40728 19.79589 6669 ft 50 kts 237°
2026-05-05 14:36 51.40591 19.79109 6748 ft 44 kts 234°
2026-05-05 14:37 51.40492 19.78675 6862 ft 43 kts 247°
2026-05-05 14:37 51.40463 19.78198 6955 ft 44 kts 247°
2026-05-05 14:37 51.40404 19.77731 7038 ft 42 kts 238°
2026-05-05 14:37 51.40321 19.77289 7181 ft 40 kts 240°
2026-05-05 14:38 51.40247 19.76869 7284 ft 39 kts 235°
2026-05-05 14:38 51.40134 19.76500 7392 ft 36 kts 232°
2026-05-05 14:38 51.40121 19.76928 7400 ft 89 kts 26°
2026-05-05 14:38 51.40353 19.76653 7508 ft 45 kts 191°
2026-05-05 14:39 51.40411 19.77292 7517 ft 87 kts 30°
2026-05-05 14:39 51.40685 19.77038 7469 ft 53 kts 191°
2026-05-05 14:39 51.40445 19.77540 7618 ft 59 kts 119°
2026-05-05 14:39 51.40505 19.78284 7678 ft 72 kts 90°
2026-05-05 14:40 51.40624 19.79016 7812 ft 66 kts 90°
2026-05-05 14:40 51.40737 19.79712 7874 ft 68 kts 83°
2026-05-05 14:40 51.40982 19.80402 7780 ft 82 kts
2026-05-05 14:40 51.40994 19.80079 7710 ft 45 kts 210°
2026-05-05 14:41 51.40812 19.79694 7655 ft 48 kts 238°
2026-05-05 14:41 51.40684 19.79222 7793 ft 35 kts 232°
2026-05-05 14:41 51.40568 19.78874 7933 ft 35 kts 229°
2026-05-05 14:41 51.40501 19.78455 7989 ft 44 kts 253°
2026-05-05 14:42 51.40448 19.77954 8049 ft 47 kts 250°
2026-05-05 14:42 51.40450 19.77491 8155 ft 41 kts 245°
2026-05-05 14:42 51.40352 19.77077 8205 ft 40 kts 236°
2026-05-05 14:42 51.40240 19.76682 8318 ft 37 kts 239°
2026-05-05 14:43 51.40138 19.76258 8297 ft 44 kts 239°
2026-05-05 14:43 51.40032 19.75807 8304 ft 41 kts 239°
2026-05-05 14:43 51.39970 19.75350 8428 ft 36 kts 245°
2026-05-05 14:43 51.39918 19.74916 8417 ft 43 kts 247°
2026-05-05 14:44 51.39859 19.74450 8391 ft 44 kts 244°
2026-05-05 14:44 51.39791 19.74019 8491 ft 32 kts 236°
2026-05-05 14:44 51.39679 19.73667 8443 ft 38 kts 236°
2026-05-05 14:44 51.39537 19.73938 8459 ft 86 kts 58°
2026-05-05 14:45 51.39883 19.73847 8434 ft 43 kts 233°
2026-05-05 14:45 51.39622 19.73637 8396 ft 46 kts 199°
2026-05-05 14:45 51.39684 19.74225 8362 ft 89 kts
2026-05-05 14:45 51.39915 19.73857 8464 ft 45 kts 208°
2026-05-05 14:46 51.39797 19.74414 8442 ft 90 kts 43°
2026-05-05 14:46 51.40036 19.74174 8325 ft 60 kts 182°
2026-05-05 14:46 51.39922 19.74366 7905 ft 41 kts 40°
2026-05-05 14:46 51.40049 19.74349 5995 ft 52 kts 321°
2026-05-05 14:47 51.40240 19.74242 4792 ft 35 kts 239°
2026-05-05 14:47 51.40119 19.73413 3845 ft 97 kts 248°
2026-05-05 14:47 51.39923 19.72275 2926 ft 112 kts 250°
2026-05-05 14:47 51.39717 19.71107 2274 ft 112 kts 242°
2026-05-05 14:48 51.39345 19.69851 1688 ft 119 kts 237°
2026-05-05 14:48 51.38891 19.68895 1035 ft 117 kts 215°
2026-05-05 14:48 51.38065 19.68364 693 ft 126 kts 195°
2026-05-05 14:48 51.37640 19.68206 1252 ft 48 kts 188°
2026-05-05 14:49 51.37530 19.68571 1141 ft 71 kts 29°
2026-05-05 14:49 51.37728 19.68144 994 ft 61 kts 224°
2026-05-05 14:49 51.37520 19.68384 944 ft 56 kts 60°
2026-05-05 14:49 51.37970 19.68478 725 ft 73 kts 354°
2026-05-05 14:50 51.38393 19.68453 669 ft 30 kts 355°
2026-05-05 14:50 51.38423 19.68449 669 ft 0 kts 355°